User: anonymous   Login
Location: Unspecified
(0.0000°N, 0.0000°E)
Time: 09:21:29
(UTC+00:00)
Language:

Orbcomm A7 (FM11) - Orbit

View from above orbital plane
View from above orbital plane
View from above satellite
View from above satellite

Ground track
Ground track

The orbit data is extracted from the following two-line orbital elements,

1 25114U 97084C   17327.09644586 +.00000154 +00000-0 +96111-4 0  9995
2 25114 045.0152 193.8202 0007652 002.5526 357.5361 14.38645510043168
Epoch (UTC): 23 November 2017 02:18:52
Eccentricity: 0.0007652
inclination: 45.0152°
perigee height: 757 km
apogee height: 768 km
right ascension of ascending node: 193.8202°
argument of perigee: 2.5526°
revolutions per day: 14.38645510
mean anomaly at epoch: 357.5361°
orbit number at epoch: 4316

The dashed part of the orbit path shows where the satellite is in the earth's shadow,  

DLR